STARLINK-33750, 63513

Orbit data source: Space-Track

STARLINK-33750, 63513 is a payload satellite owned by SpaceX/Seattle (US) in LEO that was launched on Mon, 07 Apr 2025 UTC via an FALCON 9 launch vehicle from the Air Force Western Test Range (AFWTR). Payload-class satellites include a variety of spacecraft equipped with specific instruments for various scientific and technological missions. These include communications satellites like Starlink; space stations such as the ISS; scientific satellites like the Hubble; Earth observation satellites from companies like Planet Labs, Umbra, and HawkEye 360; GPS; miniature CubeSats for education and research; and military/defense satellites.

Loading next visibility...
Identifier
63513, 2025-071W
Orbit
LEO
Country
Flag of USUS
Related business
Manufacturer
SpaceX/Seattle
Mission
Operational Commercial Communications
Bus & Motor
STARLINK V2MO, Unknown motor
Mass
575 kg wet, ~530 kg dry
Launch date (UTC)
2025-04-07 (10 months ago)
Launch vehicle
FALCON 9
Launch site
Air Force Western Test Range (AFWTR)
Object type
Payload
Rocket body
Debris
Shape & HBR
Box + 2 Pan, 17.7 m
Radar Cross Section
36.964 m², Large (>1 m²)

Expand to show TLE details & history
Last TLE update: 7 hours ago

TLE from 7 hours ago
0 STARLINK-33750
1 63513U 25071W   26037.83866142  .00027946  00000-0  95218-3 0  9995
2 63513  53.1572 283.3874 0001266  86.1541 273.9604 15.30197410 48024
Epoch: 2026-02-06T20:07Z
TLE epoch observation values (Epoch: 2026-02-06T20:07:40.346Z)
Latitude
-0.00007°
Longitude
-155.50155°
Altitude
476.062 km
Speed
7.629 km/s
True Right ascension
18h 53m 32s
True Declination
0° 00' 00"
Sunlit
Object was in daylight at epoch
Visualization orbit readout
Latitude
Unknown
Longitude
Unknown
Altitude
Unknown
Speed
Unknown
Apparent Right ascension
Unknown
Apparent Declination
Unknown
Sunlit
N/A
Visualization observer readout
Local Sidereal Time
04:56:32
Azimuth
Unknown
Elevation
Unknown
Doppler factor
Unknown
Orbital elements
Apogee altitude
476.347 km
Perigee altitude
474.612 km
Semi-major axis
6,853.617 km
Eccentricity
0.00013
Inclination
53.1572°
RAAN
283.3874°
Arg. of periapsis
86.1541°
True anomaly
273.94593°
Mean anomaly
273.9604°
Eccentric anomaly
273.95316°
Mean motion
3.82528 °/min
Orbital period
94.11 mins
BSTAR
0.00095218
Loading maneuver chart data...
Computing Atmospheric mass density...
Loading historical data...
Loading historical data...
Loading historical data...
Loading historical data...
Loading historical data...
Loading historical data...
Loading historical data...

Documentation

Showing up to 5 results
|